contact:dominique.lefevre@mio.osupytheas.fr, maurice.libes@osupytheas.fr, didier.mallarino@osupytheas.fr
Project:EMSO http://www.emso-fr.org/EMSO-France
Depth: 2436.0 m
Title:EMSO Ligure Ouest : Data MII capteur AQUADOPP
Date,Latitude,Longitude,X_East,Y_North,Z_Up,Amplitude_X,Amplitude_Y,Amplitude_Z,Batterie,SoundSpeed,Heading,Pitch,Roll,Pressure,TIS,Speed,Direction
, degrees North, degrees East, m.s-1, m.s-1,m.s-1, 1, 1, 1, Volt, m.s-1, degree, degree, degree, dbar, degree_C, m.s-1, degree
2023-11-28T00:04:03,42.805,6.029,0.035,0.002,-0.035,106.0,106.0,103.0,13.4,1505.2,338.9,-0.8,1.8,2471.525,13.28,0.035,86.7
2023-11-28T00:07:03,42.805,6.029,0.032,-0.021,-0.004,106.0,106.0,104.0,13.4,1505.2,348.2,-0.7,1.8,2471.537,13.29,0.038,123.3
2023-11-28T00:10:03,42.805,6.029,0.025,-0.017,-0.026,106.0,105.0,104.0,13.4,1505.2,356.6,-0.8,1.8,2471.5,13.29,0.03,124.2
2023-11-28T00:13:03,42.805,6.029,-0.003,0.0,0.002,105.0,105.0,103.0,13.4,1505.2,337.3,-0.8,1.8,2471.499,13.29,0.003,270.0
2023-11-28T00:16:03,42.805,6.029,0.019,0.01,-0.028,106.0,105.0,104.0,13.4,1505.2,355.7,-0.8,1.8,2471.509,13.29,0.021,62.2
2023-11-28T00:19:03,42.805,6.029,0.022,-0.021,0.014,107.0,105.0,103.0,13.3,1505.2,347.7,-0.8,1.8,2471.491,13.29,0.03,133.7
2023-11-28T00:22:03,42.805,6.029,0.034,0.0,-0.011,106.0,106.0,105.0,13.3,1505.2,345.5,-0.8,1.8,2471.495,13.29,0.034,90.0
2023-11-28T00:25:03,42.805,6.029,-0.003,0.007,-0.027,107.0,104.0,103.0,13.4,1505.2,349.1,-0.7,1.8,2471.466,13.29,0.007,336.8
2023-11-28T00:28:03,42.805,6.029,0.017,-0.002,0.007,105.0,105.0,104.0,13.4,1505.2,353.2,-0.7,1.8,2471.46,13.29,0.017,96.7
2023-11-28T00:31:03,42.805,6.029,0.006,-0.001,-0.01,105.0,105.0,104.0,13.4,1505.2,359.1,-0.8,1.8,2471.493,13.29,0.006,99.5
2023-11-28T00:34:03,42.805,6.029,0.031,0.002,-0.019,106.0,106.0,104.0,13.3,1505.2,337.8,-0.7,1.8,2471.466,13.29,0.031,86.3
2023-11-28T00:37:03,42.805,6.029,0.026,-0.017,-0.014,108.0,105.0,104.0,13.4,1505.2,351.7,-0.8,1.8,2471.464,13.29,0.031,123.2
2023-11-28T00:40:03,42.805,6.029,0.013,0.005,-0.013,106.0,107.0,105.0,13.3,1505.2,342.5,-0.7,1.8,2471.481,13.29,0.013,69.0
2023-11-28T00:43:03,42.805,6.029,0.032,0.0,-0.036,106.0,106.0,104.0,13.3,1505.2,350.1,-0.7,1.8,2471.475,13.29,0.032,90.0
2023-11-28T00:46:03,42.805,6.029,0.023,-0.006,-0.029,106.0,105.0,104.0,13.4,1505.2,359.0,-0.8,1.8,2471.466,13.29,0.023,104.6
2023-11-28T00:49:03,42.805,6.029,0.029,-0.001,0.0,106.0,106.0,103.0,13.4,1505.2,336.4,-0.8,1.8,2471.462,13.29,0.029,92.0
2023-11-28T00:52:03,42.805,6.029,0.029,-0.015,-0.029,107.0,105.0,105.0,13.4,1505.2,354.0,-0.7,1.8,2471.463,13.29,0.032,117.4
2023-11-28T00:55:03,42.805,6.029,0.018,-0.021,-0.032,107.0,107.0,103.0,13.4,1505.2,0.8,-0.7,1.8,2471.47,13.29,0.027,139.4
2023-11-28T00:58:03,42.805,6.029,0.03,-0.032,-0.03,107.0,108.0,102.0,13.4,1505.2,353.2,-0.8,1.8,2471.477,13.29,0.043,136.9
2023-11-28T01:04:03,42.805,6.029,0.041,-0.002,-0.007,107.0,108.0,104.0,13.4,1505.2,335.6,-0.8,1.8,2471.529,13.28,0.041,92.8
2023-11-28T01:07:03,42.805,6.029,0.019,0.002,-0.034,107.0,106.0,104.0,13.4,1505.2,349.0,-0.8,1.8,2471.485,13.29,0.019,84.0
2023-11-28T01:10:03,42.805,6.029,0.018,0.005,-0.009,105.0,107.0,104.0,13.4,1505.2,346.4,-0.7,1.8,2471.473,13.29,0.018,74.5
2023-11-28T01:13:03,42.805,6.029,0.045,0.001,-0.017,105.0,106.0,104.0,13.4,1505.2,345.7,-0.8,1.8,2471.481,13.29,0.045,88.7
2023-11-28T01:16:03,42.805,6.029,0.027,-0.001,-0.016,106.0,107.0,103.0,13.4,1505.2,353.0,-0.8,1.8,2471.474,13.29,0.027,92.1
2023-11-28T01:19:03,42.805,6.029,0.014,0.001,-0.013,106.0,106.0,105.0,13.4,1505.2,347.2,-0.8,1.8,2471.486,13.29,0.014,85.9
2023-11-28T01:22:02,42.805,6.029,0.033,-0.005,-0.023,106.0,105.0,104.0,13.3,1505.2,347.3,-0.8,1.8,2471.46,13.29,0.033,98.6
2023-11-28T01:25:03,42.805,6.029,0.013,-0.006,-0.008,107.0,106.0,103.0,13.4,1505.2,357.1,-0.8,1.8,2471.486,13.29,0.014,114.8
2023-11-28T01:28:03,42.805,6.029,0.019,0.007,-0.034,108.0,106.0,103.0,13.3,1505.2,338.0,-0.7,1.8,2471.472,13.29,0.02,69.8
2023-11-28T01:31:03,42.805,6.029,0.028,0.013,-0.018,106.0,106.0,104.0,13.3,1505.2,343.2,-0.8,1.8,2471.479,13.29,0.03,65.1
2023-11-28T01:34:03,42.805,6.029,0.013,-0.008,-0.041,107.0,106.0,103.0,13.3,1505.2,349.7,-0.7,1.8,2471.449,13.29,0.015,121.6
2023-11-28T01:37:03,42.805,6.029,0.019,-0.016,-0.006,105.0,106.0,104.0,13.4,1505.2,348.0,-0.8,1.8,2471.483,13.29,0.024,130.1
2023-11-28T01:40:03,42.805,6.029,0.03,0.007,-0.002,105.0,106.0,104.0,13.4,1505.2,341.5,-0.7,1.8,2471.49,13.29,0.03,76.9
2023-11-28T01:43:03,42.805,6.029,0.021,-0.004,-0.015,107.0,104.0,104.0,13.4,1505.2,357.4,-0.8,1.8,2471.455,13.29,0.021,100.8
2023-11-28T01:46:03,42.805,6.029,0.014,-0.022,-0.032,104.0,107.0,103.0,13.4,1505.2,346.3,-0.8,1.8,2471.494,13.29,0.026,147.5
2023-11-28T01:49:03,42.805,6.029,0.021,0.01,-0.018,107.0,105.0,103.0,13.3,1505.2,352.8,-0.8,1.8,2471.45,13.29,0.023,64.5
2023-11-28T01:52:03,42.805,6.029,0.007,-0.007,-0.018,107.0,105.0,103.0,13.4,1505.2,344.1,-0.8,1.8,2471.439,13.29,0.009,135.0
2023-11-28T01:55:03,42.805,6.029,0.004,-0.007,-0.006,107.0,107.0,102.0,13.4,1505.2,337.0,-0.8,1.8,2471.454,13.29,0.008,150.3
2023-11-28T01:58:03,42.805,6.029,0.025,0.007,-0.009,106.0,105.0,103.0,13.4,1505.2,350.2,-0.8,1.9,2471.451,13.29,0.025,74.4
2023-11-28T02:04:03,42.805,6.029,0.01,-0.004,-0.031,107.0,105.0,104.0,13.3,1505.2,344.4,-0.8,1.8,2471.472,13.28,0.01,111.8
2023-11-28T02:07:03,42.805,6.029,0.031,-0.021,-0.01,105.0,106.0,104.0,13.3,1505.2,351.4,-0.8,1.8,2471.529,13.28,0.037,124.1
2023-11-28T02:10:03,42.805,6.029,0.036,-0.004,0.0,106.0,106.0,104.0,13.4,1505.2,343.5,-0.7,1.8,2471.48,13.29,0.036,96.3
2023-11-28T02:13:03,42.805,6.029,0.035,0.0,-0.01,106.0,106.0,104.0,13.4,1505.2,353.4,-0.8,1.8,2471.524,13.29,0.035,90.0
2023-11-28T02:16:03,42.805,6.029,0.033,-0.039,-0.004,106.0,105.0,104.0,13.4,1505.2,0.0,-0.8,1.8,2471.485,13.29,0.051,139.8
2023-11-28T02:19:03,42.805,6.029,0.036,-0.015,-0.012,104.0,106.0,105.0,13.4,1505.2,338.2,-0.8,1.8,2471.474,13.29,0.039,112.6
2023-11-28T02:22:03,42.805,6.029,0.011,-0.02,-0.013,108.0,106.0,103.0,13.4,1505.2,354.5,-0.8,1.9,2471.47,13.29,0.022,151.2
2023-11-28T02:25:03,42.805,6.029,0.01,-0.007,-0.018,108.0,104.0,105.0,13.4,1505.2,352.2,-0.8,1.8,2471.473,13.29,0.012,125.0
2023-11-28T02:28:03,42.805,6.029,0.037,-0.009,0.002,107.0,104.0,104.0,13.3,1505.2,335.5,-0.7,1.8,2471.446,13.29,0.038,103.7
2023-11-28T02:31:03,42.805,6.029,0.025,-0.013,-0.008,106.0,106.0,103.0,13.4,1505.2,354.5,-0.8,1.8,2471.455,13.29,0.028,117.5
2023-11-28T02:34:03,42.805,6.029,0.019,-0.014,-0.029,107.0,106.0,104.0,13.3,1505.2,0.0,-0.8,1.8,2471.445,13.29,0.023,126.4
2023-11-28T02:37:03,42.805,6.029,0.032,-0.005,-0.006,106.0,106.0,104.0,13.3,1505.2,338.2,-0.8,1.8,2471.459,13.29,0.032,98.9
2023-11-28T02:40:03,42.805,6.029,0.02,-0.029,-0.01,107.0,107.0,104.0,13.4,1505.2,345.7,-0.8,1.8,2471.455,13.29,0.035,145.4
2023-11-28T02:43:03,42.805,6.029,0.01,-0.021,-0.024,106.0,107.0,103.0,13.3,1505.2,0.9,-0.8,1.8,2471.443,13.29,0.023,154.5
2023-11-28T02:46:03,42.805,6.029,0.031,-0.015,0.001,107.0,106.0,104.0,13.4,1505.2,341.5,-0.7,1.8,2471.452,13.29,0.034,115.8
2023-11-28T02:49:03,42.805,6.029,0.028,-0.012,-0.025,107.0,107.0,103.0,13.4,1505.2,352.5,-0.8,1.8,2471.525,13.29,0.03,113.2
2023-11-28T02:52:03,42.805,6.029,0.033,-0.03,0.001,107.0,106.0,103.0,13.4,1505.2,345.4,-0.7,1.8,2471.485,13.29,0.044,132.3
2023-11-28T02:55:03,42.805,6.029,0.024,-0.011,-0.009,108.0,106.0,105.0,13.3,1505.2,341.8,-0.7,1.8,2471.47,13.29,0.026,114.6
2023-11-28T02:58:03,42.805,6.029,0.012,-0.021,-0.002,106.0,107.0,104.0,13.4,1505.2,352.6,-0.8,1.8,2471.501,13.29,0.024,150.3
2023-11-28T03:04:03,42.805,6.029,0.022,-0.024,-0.018,107.0,106.0,103.0,13.3,1505.2,355.7,-0.8,1.8,2471.469,13.28,0.032,137.5
2023-11-28T03:07:03,42.805,6.029,0.009,-0.019,-0.021,107.0,106.0,103.0,13.4,1505.2,0.0,-0.8,1.8,2471.511,13.29,0.021,154.7
2023-11-28T03:10:03,42.805,6.029,0.042,-0.017,-0.002,107.0,105.0,104.0,13.4,1505.2,354.4,-0.8,1.8,2471.466,13.29,0.045,112.0
2023-11-28T03:13:03,42.805,6.029,0.03,-0.024,-0.012,106.0,106.0,104.0,13.3,1505.2,345.0,-0.8,1.8,2471.476,13.29,0.038,128.7
2023-11-28T03:16:03,42.805,6.029,0.021,-0.017,-0.008,105.0,107.0,103.0,13.3,1505.2,349.0,-0.8,1.8,2471.537,13.29,0.027,129.0
2023-11-28T03:19:03,42.805,6.029,0.024,-0.025,0.009,106.0,106.0,104.0,13.4,1505.2,2.5,-0.8,1.8,2471.527,13.29,0.034,136.2
2023-11-28T03:22:03,42.805,6.029,0.033,-0.013,-0.036,107.0,105.0,104.0,13.4,1505.2,342.9,-0.7,1.8,2471.467,13.29,0.035,111.5
2023-11-28T03:25:03,42.805,6.029,0.033,-0.025,-0.004,106.0,106.0,103.0,13.4,1505.2,345.7,-0.8,1.8,2471.51,13.29,0.041,127.1
2023-11-28T03:28:03,42.805,6.029,0.021,-0.019,-0.016,105.0,106.0,105.0,13.4,1505.2,348.2,-0.7,1.8,2471.52,13.29,0.028,132.1
2023-11-28T03:31:03,42.805,6.029,0.033,-0.007,0.006,106.0,106.0,103.0,13.4,1505.2,354.0,-0.8,1.8,2471.476,13.29,0.033,102.0
2023-11-28T03:34:03,42.805,6.029,0.021,-0.021,0.001,107.0,108.0,103.0,13.4,1505.2,1.7,-0.8,1.8,2471.53,13.29,0.029,135.0
2023-11-28T03:37:03,42.805,6.029,0.009,-0.019,0.029,106.0,107.0,104.0,13.4,1505.2,342.9,-0.8,1.8,2471.54,13.29,0.021,154.7
2023-11-28T03:40:03,42.805,6.029,0.014,-0.021,-0.01,105.0,105.0,105.0,13.3,1505.2,358.1,-0.7,1.8,2471.511,13.29,0.025,146.3
2023-11-28T03:43:03,42.805,6.029,0.023,-0.004,-0.005,107.0,105.0,104.0,13.4,1505.2,336.0,-0.8,1.8,2471.503,13.29,0.023,99.9
2023-11-28T03:46:03,42.805,6.029,0.03,-0.011,-0.028,105.0,106.0,103.0,13.4,1505.2,343.3,-0.8,1.8,2471.513,13.29,0.031,110.1
2023-11-28T03:49:03,42.805,6.029,0.014,-0.027,-0.038,107.0,106.0,104.0,13.3,1505.2,355.9,-0.8,1.8,2471.546,13.29,0.03,152.6
2023-11-28T03:52:03,42.805,6.029,0.021,-0.028,-0.022,107.0,105.0,104.0,13.3,1505.2,352.2,-0.8,1.8,2471.535,13.29,0.035,143.1
2023-11-28T03:55:03,42.805,6.029,0.016,-0.018,-0.002,107.0,106.0,104.0,13.3,1505.2,351.7,-0.8,1.8,2471.517,13.29,0.024,138.4
2023-11-28T03:58:03,42.805,6.029,0.016,-0.034,-0.029,106.0,106.0,104.0,13.3,1505.2,345.9,-0.8,1.8,2471.544,13.29,0.037,154.8
2023-11-28T04:04:03,42.805,6.029,0.027,-0.015,-0.037,107.0,107.0,103.0,13.3,1505.2,342.1,-0.8,1.8,2471.593,13.28,0.03,119.1
2023-11-28T04:07:03,42.805,6.029,0.022,-0.039,0.017,106.0,107.0,104.0,13.4,1505.2,342.8,-0.8,1.8,2471.574,13.28,0.044,150.6
2023-11-28T04:10:03,42.805,6.029,0.038,-0.032,-0.014,107.0,106.0,104.0,13.3,1505.2,338.0,-0.8,1.8,2471.612,13.29,0.049,130.1
2023-11-28T04:13:03,42.805,6.029,0.025,-0.024,0.001,107.0,106.0,103.0,13.4,1505.2,354.7,-0.8,1.8,2471.582,13.29,0.034,133.8
2023-11-28T04:16:03,42.805,6.029,0.008,-0.03,-0.003,107.0,106.0,105.0,13.3,1505.2,358.3,-0.8,1.8,2471.574,13.29,0.031,165.1
2023-11-28T04:19:03,42.805,6.029,0.033,-0.041,0.012,109.0,107.0,104.0,13.4,1505.2,344.3,-0.8,1.8,2471.575,13.29,0.052,141.2
2023-11-28T04:22:03,42.805,6.029,0.034,-0.015,0.016,108.0,107.0,103.0,13.4,1505.2,344.9,-0.7,1.8,2471.559,13.29,0.037,113.8
2023-11-28T04:25:03,42.805,6.029,0.038,-0.039,0.012,108.0,107.0,105.0,13.4,1505.2,351.3,-0.8,1.8,2471.571,13.29,0.054,135.7
2023-11-28T04:28:03,42.805,6.029,0.026,-0.02,-0.008,108.0,106.0,105.0,13.4,1505.2,353.1,-0.8,1.8,2471.58,13.29,0.032,127.6
2023-11-28T04:31:03,42.805,6.029,0.013,-0.035,-0.012,108.0,106.0,104.0,13.4,1505.2,346.6,-0.8,1.8,2471.546,13.29,0.037,159.6
2023-11-28T04:34:03,42.805,6.029,0.024,-0.012,0.005,107.0,107.0,106.0,13.4,1505.2,346.6,-0.8,1.8,2471.554,13.29,0.026,116.6
2023-11-28T04:37:03,42.805,6.029,0.022,-0.026,-0.008,108.0,108.0,105.0,13.4,1505.2,350.2,-0.7,1.8,2471.58,13.29,0.034,139.8
2023-11-28T04:40:03,42.805,6.029,0.03,-0.02,-0.043,107.0,107.0,104.0,13.3,1505.2,344.1,-0.8,1.8,2471.548,13.29,0.036,123.7
2023-11-28T04:43:03,42.805,6.029,0.01,-0.051,-0.005,107.0,106.0,105.0,13.3,1505.2,352.7,-0.7,1.8,2471.618,13.29,0.051,168.9
2023-11-28T04:46:03,42.805,6.029,0.007,-0.045,-0.024,108.0,108.0,104.0,13.4,1505.2,356.5,-0.8,1.8,2471.543,13.29,0.045,171.2
2023-11-28T04:49:03,42.805,6.029,0.024,-0.017,-0.001,107.0,106.0,103.0,13.3,1505.2,335.6,-0.8,1.8,2471.573,13.29,0.029,125.3
2023-11-28T04:52:03,42.805,6.029,0.029,-0.046,-0.003,108.0,107.0,104.0,13.4,1505.2,343.3,-0.8,1.8,2471.605,13.29,0.054,147.8
2023-11-28T04:55:03,42.805,6.029,0.017,-0.023,-0.015,107.0,108.0,104.0,13.4,1505.2,347.2,-0.8,1.8,2471.567,13.29,0.028,143.5
2023-11-28T04:58:03,42.805,6.029,0.038,-0.041,-0.005,108.0,107.0,105.0,13.4,1505.2,354.7,-0.7,1.8,2471.638,13.29,0.055,137.2
2023-11-28T05:04:03,42.805,6.029,0.032,-0.029,-0.004,109.0,107.0,104.0,13.3,1505.2,350.6,-0.8,1.8,2471.665,13.28,0.043,132.2
2023-11-28T05:07:03,42.805,6.029,0.024,-0.018,0.011,108.0,108.0,105.0,13.4,1505.2,353.4,-0.8,1.8,2471.646,13.28,0.03,126.9
2023-11-28T05:10:03,42.805,6.029,0.014,-0.006,-0.005,107.0,108.0,104.0,13.4,1505.2,357.4,-0.8,1.8,2471.617,13.29,0.015,113.2
2023-11-28T05:13:03,42.805,6.029,0.001,-0.028,-0.001,108.0,108.0,104.0,13.4,1505.2,345.5,-0.8,1.8,2471.658,13.29,0.028,178.0
2023-11-28T05:16:03,42.805,6.029,0.018,-0.024,-0.023,108.0,106.0,105.0,13.4,1505.2,358.2,-0.8,1.8,2471.578,13.29,0.03,143.1
2023-11-28T05:19:03,42.805,6.029,0.059,-0.022,0.004,109.0,107.0,105.0,13.3,1505.2,343.9,-0.8,1.8,2471.622,13.29,0.062,110.4
2023-11-28T05:22:03,42.805,6.029,0.016,-0.037,-0.036,108.0,107.0,105.0,13.4,1505.2,0.0,-0.8,1.8,2471.659,13.29,0.04,156.6
2023-11-28T05:25:03,42.805,6.029,0.003,-0.04,-0.011,107.0,107.0,104.0,13.3,1505.2,353.4,-0.8,1.8,2471.597,13.29,0.04,175.7
2023-11-28T05:28:03,42.805,6.029,0.022,-0.042,-0.006,108.0,107.0,104.0,13.3,1505.2,0.9,-0.8,1.8,2471.664,13.29,0.047,152.4
2023-11-28T05:31:03,42.805,6.029,0.033,-0.034,0.003,107.0,106.0,106.0,13.4,1505.2,349.6,-0.8,1.8,2471.626,13.29,0.047,135.9
2023-11-28T05:34:03,42.805,6.029,0.017,-0.036,-0.003,109.0,107.0,105.0,13.3,1505.2,1.7,-0.8,1.8,2471.624,13.29,0.039,154.7
2023-11-28T05:37:03,42.805,6.029,0.046,-0.02,-0.009,109.0,108.0,104.0,13.3,1505.2,336.9,-0.8,1.8,2471.643,13.29,0.05,113.5
2023-11-28T05:40:03,42.805,6.029,0.021,-0.049,-0.016,108.0,109.0,105.0,13.4,1505.2,0.8,-0.8,1.8,2471.661,13.29,0.053,156.8
2023-11-28T05:43:03,42.805,6.029,0.007,-0.028,-0.023,108.0,109.0,104.0,13.4,1505.2,347.5,-0.8,1.8,2471.609,13.29,0.028,166.0
2023-11-28T05:46:03,42.805,6.029,0.017,-0.026,-0.027,108.0,106.0,105.0,13.4,1505.2,347.2,-0.8,1.8,2471.613,13.29,0.031,146.8
2023-11-28T05:49:03,42.805,6.029,0.014,-0.035,-0.038,109.0,108.0,104.0,13.4,1505.2,346.7,-0.8,1.8,2471.624,13.29,0.037,158.2
2023-11-28T05:52:03,42.805,6.029,0.023,-0.04,-0.03,109.0,108.0,105.0,13.4,1505.2,335.8,-0.8,1.8,2471.617,13.29,0.046,150.1
2023-11-28T05:55:03,42.805,6.029,0.023,-0.026,0.002,108.0,108.0,106.0,13.4,1505.2,349.6,-0.8,1.8,2471.659,13.29,0.034,138.5
2023-11-28T05:58:03,42.805,6.029,0.02,-0.009,-0.017,108.0,108.0,105.0,13.4,1505.2,358.4,-0.7,1.8,2471.628,13.29,0.021,114.2
2023-11-28T06:04:03,42.805,6.029,0.017,-0.017,-0.009,108.0,108.0,105.0,13.4,1505.2,356.1,-0.8,1.8,2471.731,13.28,0.024,135.0
2023-11-28T06:07:03,42.805,6.029,0.007,-0.042,-0.032,108.0,109.0,103.0,13.3,1505.2,342.5,-0.7,1.8,2471.666,13.28,0.042,170.5
2023-11-28T06:10:03,42.805,6.029,0.027,-0.01,-0.021,109.0,110.0,106.0,13.4,1505.2,343.3,-0.8,1.8,2471.663,13.29,0.028,110.3
2023-11-28T06:13:03,42.805,6.029,0.0,-0.039,-0.013,108.0,108.0,106.0,13.4,1505.2,0.0,-0.8,1.8,2471.657,13.29,0.039,180.0
2023-11-28T06:16:03,42.805,6.029,0.026,-0.018,-0.011,109.0,108.0,104.0,13.4,1505.2,354.4,-0.8,1.8,2471.707,13.29,0.031,124.7
2023-11-28T06:19:03,42.805,6.029,0.021,-0.02,0.008,109.0,108.0,106.0,13.4,1505.2,359.1,-0.7,1.8,2471.734,13.29,0.028,133.6
2023-11-28T06:22:03,42.805,6.029,0.033,-0.027,-0.004,108.0,108.0,105.0,13.4,1505.2,345.7,-0.7,1.8,2471.68,13.29,0.042,129.3
2023-11-28T06:25:03,42.805,6.029,0.004,-0.004,-0.013,110.0,108.0,105.0,13.4,1505.2,0.0,-0.7,1.8,2471.666,13.29,0.005,135.0
2023-11-28T06:28:03,42.805,6.029,0.013,-0.024,-0.022,109.0,109.0,106.0,13.4,1505.2,342.6,-0.7,1.8,2471.688,13.29,0.027,151.6
2023-11-28T06:31:03,42.805,6.029,0.026,-0.042,-0.021,109.0,109.0,104.0,13.4,1505.2,350.5,-0.8,1.8,2471.699,13.29,0.049,148.2
2023-11-28T06:34:03,42.805,6.029,0.013,-0.016,0.007,109.0,110.0,106.0,13.4,1505.2,345.7,-0.8,1.8,2471.686,13.29,0.02,140.9
2023-11-28T06:37:03,42.805,6.029,0.004,-0.026,-0.021,110.0,109.0,105.0,13.3,1505.2,346.7,-0.8,1.8,2471.677,13.29,0.026,171.3
2023-11-28T06:40:03,42.805,6.029,0.025,-0.031,-0.013,109.0,110.0,106.0,13.4,1505.2,343.8,-0.8,1.8,2471.657,13.29,0.039,141.1
2023-11-28T06:43:03,42.805,6.029,0.003,-0.032,-0.017,109.0,109.0,105.0,13.3,1505.2,349.6,-0.8,1.8,2471.645,13.29,0.032,174.6
2023-11-28T06:46:03,42.805,6.029,0.03,-0.036,-0.026,110.0,107.0,106.0,13.3,1505.2,344.1,-0.8,1.8,2471.694,13.29,0.046,140.2
2023-11-28T06:49:03,42.805,6.029,0.004,-0.022,-0.005,108.0,108.0,105.0,13.4,1505.2,0.8,-0.8,1.8,2471.678,13.29,0.022,169.7
2023-11-28T06:52:03,42.805,6.029,0.008,-0.033,-0.009,109.0,109.0,106.0,13.4,1505.2,354.4,-0.8,1.8,2471.69,13.29,0.033,166.4
2023-11-28T06:55:03,42.805,6.029,0.02,-0.018,0.001,108.0,107.0,106.0,13.3,1505.2,355.1,-0.8,1.8,2471.678,13.29,0.026,132.0
2023-11-28T06:58:03,42.805,6.029,0.011,-0.013,-0.031,108.0,108.0,107.0,13.4,1505.2,343.9,-0.8,1.8,2471.673,13.29,0.017,139.8
2023-11-28T07:04:03,42.805,6.029,0.016,-0.005,-0.013,109.0,108.0,106.0,13.4,1505.2,339.3,-0.8,1.8,2471.713,13.28,0.016,107.4
2023-11-28T07:07:03,42.805,6.029,0.008,-0.047,-0.009,109.0,107.0,107.0,13.4,1505.2,0.8,-0.8,1.8,2471.713,13.29,0.047,170.3
2023-11-28T07:10:03,42.805,6.029,0.016,-0.019,-0.02,108.0,107.0,105.0,13.4,1505.2,335.3,-0.7,1.8,2471.717,13.29,0.024,139.9
2023-11-28T07:13:03,42.805,6.029,0.006,-0.029,-0.045,108.0,109.0,106.0,13.4,1505.2,347.0,-0.7,1.8,2471.738,13.29,0.029,168.3
2023-11-28T07:16:03,42.805,6.029,0.018,-0.02,-0.019,109.0,107.0,105.0,13.4,1505.2,349.1,-0.8,1.8,2471.729,13.29,0.026,138.0
2023-11-28T07:19:07,42.805,6.029,0.018,-0.015,-0.012,109.0,108.0,105.0,13.3,1505.2,343.9,-0.8,1.8,2471.692,13.29,0.023,129.8
2023-11-28T07:22:03,42.805,6.029,0.029,-0.018,0.016,108.0,109.0,105.0,13.4,1505.2,347.1,-0.7,1.8,2471.733,13.29,0.034,121.8
2023-11-28T07:25:03,42.805,6.029,0.02,-0.033,-0.052,109.0,108.0,104.0,13.3,1505.2,346.8,-0.8,1.8,2471.72,13.29,0.038,148.8
2023-11-28T07:28:03,42.805,6.029,0.011,-0.029,0.009,107.0,107.0,105.0,13.4,1505.2,358.3,-0.8,1.8,2471.714,13.29,0.031,159.2
2023-11-28T07:31:03,42.805,6.029,0.015,-0.03,-0.006,110.0,109.0,106.0,13.4,1505.2,342.1,-0.8,1.8,2471.696,13.29,0.033,153.4
2023-11-28T07:34:03,42.805,6.029,0.033,-0.011,-0.002,109.0,107.0,105.0,13.4,1505.2,342.1,-0.7,1.8,2471.695,13.29,0.034,108.4
2023-11-28T07:37:03,42.805,6.029,0.032,-0.03,-0.013,107.0,108.0,105.0,13.4,1505.2,344.1,-0.8,1.8,2471.701,13.29,0.043,133.1
2023-11-28T07:40:03,42.805,6.029,0.03,-0.019,-0.047,107.0,108.0,105.0,13.4,1505.2,335.2,-0.8,1.8,2471.683,13.29,0.035,122.3
2023-11-28T07:43:03,42.805,6.029,0.004,-0.021,-0.013,108.0,106.0,105.0,13.4,1505.2,1.7,-0.7,1.8,2471.673,13.29,0.021,169.2
2023-11-28T07:46:03,42.805,6.029,0.033,-0.026,0.007,108.0,107.0,105.0,13.4,1505.2,354.5,-0.8,1.8,2471.676,13.29,0.042,128.2
2023-11-28T07:49:03,42.805,6.029,0.022,-0.01,-0.006,109.0,109.0,105.0,13.4,1505.2,347.2,-0.8,1.8,2471.681,13.29,0.024,114.4
2023-11-28T07:52:03,42.805,6.029,0.027,-0.012,-0.027,110.0,109.0,106.0,13.4,1505.2,347.0,-0.8,1.8,2471.646,13.29,0.029,114.0
2023-11-28T07:55:03,42.805,6.029,0.02,-0.029,0.016,108.0,109.0,106.0,13.3,1505.2,0.0,-0.7,1.8,2471.684,13.29,0.035,145.4
2023-11-28T07:58:03,42.805,6.029,0.01,-0.004,-0.005,110.0,109.0,105.0,13.3,1505.2,355.4,-0.8,1.8,2471.681,13.29,0.01,111.8
2023-11-28T08:04:03,42.805,6.029,0.001,-0.016,-0.004,109.0,108.0,106.0,13.4,1505.2,346.4,-0.8,1.8,2471.717,13.28,0.016,176.4
2023-11-28T08:07:03,42.805,6.029,0.017,-0.014,0.005,110.0,109.0,105.0,13.3,1505.2,344.4,-0.7,1.8,2471.713,13.29,0.022,129.5
2023-11-28T08:10:03,42.805,6.029,0.046,-0.027,-0.029,110.0,110.0,106.0,13.3,1505.2,341.8,-0.8,1.8,2471.738,13.29,0.053,120.4
2023-11-28T08:13:03,42.805,6.029,0.019,-0.004,-0.027,109.0,108.0,106.0,13.4,1505.2,335.9,-0.7,1.8,2471.738,13.29,0.019,101.9
2023-11-28T08:16:03,42.805,6.029,0.024,-0.01,-0.026,109.0,108.0,106.0,13.4,1505.2,344.7,-0.8,1.8,2471.699,13.29,0.026,112.6
2023-11-28T08:19:03,42.805,6.029,0.017,-0.02,0.001,108.0,109.0,105.0,13.4,1505.2,340.6,-0.7,1.8,2471.712,13.29,0.026,139.6
2023-11-28T08:22:03,42.805,6.029,0.022,-0.012,-0.011,109.0,110.0,105.0,13.4,1505.2,342.1,-0.8,1.8,2471.683,13.29,0.025,118.6
2023-11-28T08:25:03,42.805,6.029,0.026,-0.026,-0.005,109.0,108.0,105.0,13.4,1505.2,336.5,-0.8,1.8,2471.699,13.29,0.036,135.0
2023-11-28T08:28:03,42.805,6.029,0.005,-0.019,-0.005,109.0,110.0,105.0,13.3,1505.2,341.2,-0.8,1.8,2471.712,13.29,0.019,165.3
2023-11-28T08:31:03,42.805,6.029,0.023,-0.023,-0.014,109.0,108.0,106.0,13.3,1505.2,346.7,-0.7,1.8,2471.668,13.29,0.032,135.0
2023-11-28T08:34:03,42.805,6.029,0.025,-0.032,-0.025,110.0,108.0,104.0,13.4,1505.2,354.2,-0.8,1.8,2471.692,13.29,0.04,142.0
2023-11-28T08:37:03,42.805,6.029,0.024,-0.015,-0.003,109.0,108.0,106.0,13.4,1505.2,345.0,-0.7,1.8,2471.705,13.29,0.028,122.0
2023-11-28T08:40:03,42.805,6.029,0.026,-0.007,-0.026,108.0,108.0,105.0,13.4,1505.2,337.3,-0.8,1.8,2471.674,13.29,0.026,105.1
2023-11-28T08:43:03,42.805,6.029,0.003,-0.022,-0.005,111.0,108.0,105.0,13.3,1505.2,343.9,-0.8,1.8,2471.671,13.29,0.022,172.2
2023-11-28T08:46:03,42.805,6.029,0.028,-0.018,-0.011,109.0,108.0,107.0,13.3,1505.2,0.8,-0.8,1.8,2471.713,13.29,0.033,122.7
2023-11-28T08:49:03,42.805,6.029,0.011,-0.016,0.007,109.0,109.0,105.0,13.3,1505.2,351.3,-0.8,1.8,2471.721,13.29,0.019,145.5
2023-11-28T08:52:03,42.805,6.029,0.039,-0.053,-0.028,107.0,108.0,105.0,13.4,1505.2,342.2,-0.7,1.8,2471.675,13.29,0.065,143.7
2023-11-28T08:55:03,42.805,6.029,0.03,-0.032,-0.023,108.0,108.0,106.0,13.4,1505.2,354.8,-0.8,1.8,2471.67,13.29,0.043,136.9
2023-11-28T08:58:03,42.805,6.029,0.017,-0.02,0.004,108.0,109.0,105.0,13.4,1505.2,359.0,-0.8,1.8,2471.663,13.29,0.026,139.6
2023-11-28T09:04:03,42.805,6.029,0.004,-0.022,-0.026,109.0,107.0,105.0,13.4,1505.2,352.8,-0.7,1.8,2471.692,13.28,0.022,169.7
2023-11-28T09:07:03,42.805,6.029,0.035,-0.022,0.002,110.0,109.0,106.0,13.4,1505.2,343.0,-0.8,1.8,2471.717,13.28,0.041,122.2
2023-11-28T09:10:03,42.805,6.029,0.023,-0.028,-0.01,110.0,110.0,106.0,13.4,1505.2,344.0,-0.8,1.8,2471.695,13.29,0.036,140.6
2023-11-28T09:13:03,42.805,6.029,0.024,-0.014,-0.031,108.0,107.0,106.0,13.4,1505.2,344.8,-0.8,1.8,2471.695,13.29,0.027,120.3
2023-11-28T09:16:03,42.805,6.029,0.033,-0.026,-0.024,109.0,108.0,106.0,13.4,1505.2,343.1,-0.8,1.8,2471.697,13.29,0.042,128.2
2023-11-28T09:19:03,42.805,6.029,0.017,-0.03,0.005,110.0,108.0,105.0,13.4,1505.2,347.4,-0.8,1.8,2471.716,13.29,0.034,150.5
2023-11-28T09:22:03,42.805,6.029,0.01,-0.016,-0.022,108.0,109.0,105.0,13.3,1505.2,350.3,-0.8,1.8,2471.66,13.29,0.018,148.0
2023-11-28T09:25:03,42.805,6.029,-0.003,-0.017,-0.03,109.0,108.0,106.0,13.4,1505.2,1.7,-0.8,1.8,2471.711,13.29,0.017,190.0
2023-11-28T09:28:03,42.805,6.029,0.051,-0.03,-0.016,109.0,109.0,105.0,13.4,1505.2,339.3,-0.7,1.8,2471.697,13.29,0.059,120.5
2023-11-28T09:31:03,42.805,6.029,0.023,-0.042,-0.03,109.0,107.0,106.0,13.4,1505.2,350.6,-0.8,1.8,2471.651,13.29,0.047,151.3
2023-11-28T09:34:03,42.805,6.029,0.01,-0.026,-0.039,107.0,110.0,106.0,13.4,1505.2,0.0,-0.7,1.8,2471.672,13.29,0.027,159.0
2023-11-28T09:37:03,42.805,6.029,0.019,-0.026,0.011,109.0,109.0,106.0,13.4,1505.2,343.0,-0.8,1.8,2471.655,13.29,0.032,143.8
2023-11-28T09:40:03,42.805,6.029,0.032,-0.017,-0.006,108.0,109.0,106.0,13.3,1505.2,344.1,-0.7,1.8,2471.662,13.29,0.036,118.0
2023-11-28T09:43:03,42.805,6.029,0.034,-0.025,-0.018,109.0,109.0,105.0,13.4,1505.2,350.2,-0.8,1.8,2471.658,13.29,0.042,126.3
2023-11-28T09:46:03,42.805,6.029,0.025,-0.026,-0.024,108.0,108.0,106.0,13.4,1505.2,353.3,-0.8,1.8,2471.65,13.29,0.036,136.1
2023-11-28T09:49:03,42.805,6.029,0.013,-0.03,0.008,111.0,110.0,104.0,13.4,1505.2,356.8,-0.7,1.8,2471.657,13.29,0.032,156.6
2023-11-28T09:52:03,42.805,6.029,0.027,-0.017,-0.024,109.0,108.0,105.0,13.3,1505.2,345.1,-0.7,1.9,2471.661,13.29,0.031,122.2
2023-11-28T09:55:03,42.805,6.029,0.011,-0.018,0.0,108.0,108.0,107.0,13.4,1505.2,351.7,-0.8,1.8,2471.631,13.29,0.021,148.6